Home   Weather   Ottawa   Past weeks

Flag for Canada Past Weather in Ottawa, Ontario, Canada — Yesterday and Last 2 Weeks

Now
54 °F

Partly sunny.


Feels Like: 50 °F
Forecast: 50 / 65 °F
Wind: 12 mph from Northeast

Location: Ottawa Int'L. Ont.

Current Time: Sep 30, 2016 at 11:15:59 AM

Latest Report: Sep 30, 2016 at 10:00 AM


Visibility: 15 mi

Pressure: 30.47 "Hg

Humidity: 72%

Dew Point: 45 °F

Location of OttawaLocation

Past Weather in Ottawa — Graph

°F

Ottawa Temperature Yesterday

Maximum temperature yesterday: 64 °F (at 3:00 PM)
Minimum temperature yesterday: 46 °F (at 7:00 AM)
Average temperature yesterday: 55 °F

High & Low Weather Summary for the Past Weeks

 TemperatureHumidityPressure
High81 °F (Sep 20, 3:00 PM)100% (Sep 16, 6:00 AM)30.51 "Hg (Sep 16, 6:00 AM)
Low37 °F (Sep 26, 6:00 AM)34% (Sep 20, 5:00 PM)29.79 "Hg (Sep 27, 12:00 AM)
Average59 °F75%30.12 "Hg
* Reported Sep 15 10:00 AM — Sep 30 10:00 AM, Ottawa, Weather by CustomWeather, © 2016

Note: Actual official high and low records may vary slightly from our data, if they occured in-between our weather recording intervals... More about our weather records

Advertising

Ottawa Weather History for the Previous 24 Hours

Scroll right to see more
 ConditionsComfort  
Time TempWeatherWind HumidityBarometerVisibility
10:00 AM
Fri, Sep 30
54 °FPartly sunny.12 mph72%30.47 "Hg15 mi
9:00 AM52 °FPartly sunny.13 mph72%30.47 "Hg15 mi
8:00 AM50 °FPartly sunny.10 mph76%30.48 "Hg15 mi
7:00 AM50 °FPartly sunny.9 mph76%30.48 "Hg15 mi
6:00 AM52 °FPassing clouds.9 mph72%30.47 "Hg15 mi
5:00 AM52 °FOvercast.15 mph72%30.45 "Hg15 mi
4:00 AM52 °FOvercast.9 mph72%30.46 "Hg15 mi
3:00 AM54 °FPassing clouds.9 mph63%30.47 "Hg15 mi
2:00 AM54 °FPassing clouds.12 mph63%30.49 "Hg15 mi
1:00 AM54 °FPassing clouds.12 mph63%30.49 "Hg15 mi
12:00 AM54 °FMostly cloudy.12 mph63%30.50 "Hg15 mi
11:00 PM
Thu, Sep 29
55 °FPartly cloudy.12 mph59%30.50 "Hg15 mi
10:00 PM55 °FOvercast.14 mph63%30.50 "Hg15 mi
9:00 PM57 °FPassing clouds.15 mph59%30.50 "Hg15 mi
8:00 PM57 °FPassing clouds.15 mph59%30.50 "Hg15 mi
7:00 PM59 °FPassing clouds.13 mph59%30.49 "Hg15 mi
6:00 PM61 °FPartly sunny.14 mph55%30.48 "Hg15 mi
5:00 PM64 °FPartly sunny.17 mph52%30.47 "Hg15 mi
4:00 PM64 °FPartly sunny.16 mph52%30.46 "Hg15 mi
3:00 PM64 °FPassing clouds.17 mph56%30.47 "Hg15 mi
2:00 PM63 °FPassing clouds.15 mph56%30.48 "Hg15 mi
1:00 PM63 °FPassing clouds.15 mph59%30.50 "Hg15 mi
12:00 PM61 °FPassing clouds.16 mph63%30.51 "Hg15 mi
11:00 AM57 °FPassing clouds.14 mph72%30.50 "Hg15 mi
Weather by CustomWeather, © 2016

See weather overviewHow to use our weather pages